Regional Weather Roundup
Issued by NWS

Home | Current Version | Previous Version | Text Only | Print | Product List | Glossary On
Versions: 1 2 3 4 5 6 7 8 9 10 11 12 13 14 15 16 17 18 19 20 21 22 23 24 25 26 27 28 29 30 31 32 33 34 35 36 37 38 39 40 41 42 43 44 45 46 47 48 49 50
000
ASUS43 KLSX 252310
RWRMO

WEATHER SUMMARY FOR MISSOURI
NATIONAL WEATHER SERVICE SPRINGFIELD MO
600 PM CDT WED MAY 25 2016

NOTE: "FAIR" INDICATES FEW OR NO CLOUDS BELOW 12,000 FEET WITH NO
       SIGNIFICANT WEATHER AND/OR OBSTRUCTIONS TO VISIBILITY.
       CURRENT SKY AND/OR WEATHER CONDITIONS ARE NOT AVAILABLE FOR
       CHILLICOTHE AND FARMINGTON.

MOZ001>031-035>038-043-044-053-054-260000-
...NORTHERN AND WESTERN MISSOURI...

CITY           SKY/WX    TMP DP  RH WIND       PRES   REMARKS
KANSAS CTY INT MOSUNNY   81  66  60 S14       29.85F
KANSAS C DTWN  SUNNY     83  65  54 SW14G21   29.84F
LEE`S SUMMIT   SUNNY     83  65  54 SW21G29   29.87S
ST JOSEPH      CLOUDY    80  67  64 S7        29.84F
CHILLICOTHE      N/A     84  64  50 S12       29.86F
KIRKSVILLE     SUNNY     82  62  50 S8        29.88F

$$
MOZ066>068-077>081-088>096-101>105-260000-
...SOUTHWEST MISSOURI...

CITY           SKY/WX    TMP DP  RH WIND       PRES   REMARKS
SPRINGFIELD    MOSUNNY   80  65  59 S13       29.93F
JOPLIN         CLOUDY    80  70  71 S9        29.91S
BRANSON        MOSUNNY   81  68  65 S6        29.98F

$$
MOZ032>034-039>042-045>050-055>058-069>072-260000-
...CENTRAL MISSOURI...

CITY           SKY/WX    TMP DP  RH WIND       PRES   REMARKS
COLUMBIA       SUNNY     83  64  52 S12       29.90F
JEFFERSON CITY SUNNY     82  64  54 S12       29.90S
ROLLA          SUNNY     79  63  57 S7        29.94S
SEDALIA        SUNNY     83  65  54 S13       29.90S
WHITEMAN AFB   MOSUNNY   83  66  56 SW15      29.87S

$$
MOZ051-052-059>065-260000-
...EAST CENTRAL MISSOURI...

CITY           SKY/WX    TMP DP  RH WIND       PRES   REMARKS
ST LOUIS INTL  PTSUNNY   83  62  49 S14       29.93R
SPIRIT OF STL  PTSUNNY   82  65  56 S10G17    29.91S
ST CHARLES     MOSUNNY   83  64  52 S14       29.90S

$$
MOZ072>076-082>087-097>100-106>115-260000-
...SOUTH CENTRAL AND SOUTHEAST MISSOURI...

CITY           SKY/WX    TMP DP  RH WIND       PRES   REMARKS
CAPE GIRARDEAU CLOUDY    77  68  73 S8        29.99R
FARMINGTON     PTSUNNY   77  67  71 S9        29.99F
POPLAR BLUFF   PTSUNNY   76  67  73 SW13      30.00R
WEST PLAINS    SUNNY     77  64  64 S8        30.01F

$$




USA.gov is the U.S. government's official web portal to all federal, state and local government web resources and services.